Location: Newark
(45.8667°N, 9.7333°E)
Time: 11:33:42
(UTC+00:00)

Vanguard 2 Rocket - Pass Details

Date: 26 January 2020
Orbit: 553 x 3327 km, 32.9° (Epoch: 23 February)

Event Time Altitude Azimuth Distance (km) Brightness Sun altitude
Rises 06:36:03 0° 248° (WSW) 3,104 9.2 -3.1°
Reaches altitude 10° 06:38:25 10° 234° (SW) 2,396 8.8 -2.7°
Maximum altitude 06:43:03 26° 178° (S) 1,950 9.0 -2.0°
Drops below altitude 10° 06:49:54 10° 127° (SE) 3,668 12.0 -0.9°
Sets 06:54:33 0° 117° (ESE) 5,181 16.0 -0.2°
